Location: Madrid
(40.4000°N, 3.6830°W)
Time: 22:18:03
(UTC+01:00)

Hubble Space Telescope - Visible Passes

Search period start: 24 February 2020 00:00
Search period end: 05 March 2020 00:00
Orbit: 536 x 540 km, 28.5° (Epoch: 24 February)

Date Brightness Start Highest point End Pass type
(mag) Time Alt. Az. Time Alt. Az. Time Alt. Az.
24 Feb 3.0 20:53:44 10° SW 20:56:05 15° S 20:56:05 15° S visible
25 Feb 3.0 20:43:07 10° SW 20:45:24 14° S 20:46:08 14° S visible
26 Feb 3.1 20:32:35 10° SW 20:34:38 13° S 20:36:13 11° SSE visible
27 Feb 3.3 20:22:11 10° SW 20:23:52 12° SSW 20:25:34 10° SSE visible
28 Feb 3.4 20:12:01 10° SSW 20:13:06 11° SSW 20:14:10 10° S visible
